Temp
60 60 60 59 59 59 59 59 59 59 60 60 60 60 60 60 60 58 59 69 66 67 70 72 73 73 74 72 73 73 63 61 63 63 67 73 70 77 81 77 80 83 83 85 89
59 59 60 60 59 59 59 59 58 59 59 60 60 59 59 59 58 58 69 68 68 70 71 69 67 70 69 69 71 68 63 63 69 72 71 75 72 73 73 74 75 80 85 88 90
59 59 59 59 59 59 59 58 58 59 59 58 59 59 59 60 57 69 70 69 70 71 71 69 68 69 65 68 67 65 62 65 68 72 72 72 70 74 70 69 76 74 80 85 86
58 59 59 59 59 58 58 58 58 58 58 58 58 59 59 58 56 71 72 70 71 72 70 68 67 64 62 61 64 60 63 65 69 69 69 69 69 69 71 72 77 79 81 84 84
58 58 58 58 58 58 58 58 58 57 57 57 58 58 58 58 63 74 73 72 71 70 69 67 65 63 60 61 62 61 62 65 67 68 69 70 68 69 69 75 78 80 81 82 83
58 58 58 58 57 57 58 58 57 57 56 57 58 59 55 55 73 73 72 70 71 69 68 68 67 67 62 61 61 62 62 64 66 68 68 66 69 69 72 76 75 78 79 82 83
58 57 57 57 57 57 57 57 57 56 57 58 58 59 54 62 73 71 70 71 72 71 69 70 71 67 65 59 63 61 57 61 63 64 64 67 62 63 71 73 72 75 78 79 80
57 56 56 57 57 57 57 56 56 56 57 58 59 57 56 70 72 71 71 72 73 72 71 73 73 68 64 64 59 56 56 54 61 62 64 64 57 66 67 69 69 70 75 77 79
57 56 56 56 56 56 56 55 56 58 58 59 57 56 59 72 69 75 74 72 73 72 72 74 70 62 62 57 54 54 50 50 54 62 61 60 55 65 67 65 65 67 71 74 76
56 56 55 55 56 55 55 55 57 60 60 61 61 54 64 63 70 72 76 73 70 69 67 65 63 60 58 56 46 47 48 49 50 58 59 58 57 62 65 64 63 65 67 70 73
56 55 55 55 55 54 54 60 60 58 57 58 59 58 62 69 72 71 75 71 69 65 57 58 56 51 54 55 54 52 50 49 53 58 56 56 56 61 65 64 64 65 65 67 69
55 55 55 55 55 54 54 61 59 61 53 61 60 61 64 68 61 68 73 65 62 55 56 55 51 57 57 56 53 52 49 49 53 57 55 55 54 60 63 63 66 66 66 67 67
54 54 55 55 54 56 58 61 64 62 53 58 62 61 63 67 61 63 70 65 60 55 54 51 55 58 55 54 51 52 49 48 48 52 56 52 53 54 62 63 65 67 68 68 67
54 54 55 54 56 56 61 63 63 63 51 54 59 63 64 65 60 69 71 67 59 54 54 54 57 55 54 52 54 48 55 52 50 48 43 52 42 52 57 59 62 65 66 68 69
54 54 54 53 56 61 62 61 63 63 37 57 60 74 67 62 63 64 70 65 57 56 55 52 54 53 52 54 55 51 54 52 50 48 45 48 42 51 55 55 59 63 66 68 70
53 54 53 54 53 61 61 60 64 48 35 52 61 59 59 60 61 64 63 66 63 56 56 55 59 58 56 56 56 54 52 51 46 45 38 43 43 48 52 55 57 64 66 67 68
53 52 54 57 61 61 60 62 47 40 54 49 52 56 54 53 55 56 54 52 51 45 46 51 52 56 57 52 54 52 47 40 38 38 38 45 42 48 54 59 61 62 65 67 66
52 52 54 59 61 58 61 54 38 45 46 55 54 54 50 53 52 52 51 48 52 50 46 42 40 51 56 54 50 49 47 39 28 33 39 47 38 51 57 60 62 62 65 65 66
51 58 60 62 60 60 58 44 43 46 51 49 53 47 47 51 51 50 48 48 52 52 44 41 40 52 54 55 54 45 42 49 40 42 35 43 48 54 59 59 60 61 63 64 66
53 57 61 61 60 59 53 43 47 54 53 52 44 49 43 47 46 46 46 51 49 53 53 46 38 49 53 54 55 51 53 39 40 29 28 40 42 44 52 55 59 61 63 64 64
54 57 63 60 60 56 46 45 49 56 55 50 47 47 47 45 47 45 46 50 53 51 52 49 43 44 47 46 47 46 43 43 41 38 31 31 41 54 54 56 56 60 62 63 63
50 52 60 61 53 44 46 47 49 53 55 52 51 49 46 47 44 44 44 49 54 54 46 49 43 38 43 53 54 51 46 45 35 33 38 37 38 58 57 58 56 58 60 63 64
46 47 58 59 44 45 46 47 49 50 51 50 48 49 49 45 41 45 46 52 53 51 46 47 41 34 40 44 48 44 46 46 44 38 32 29 38 58 58 56 58 56 58 60 60
48 47 51 50 47 43 40 43 44 52 50 50 49 49 46 43 47 43 43 49 51 51 51 49 43 39 34 41 44 39 44 46 40 30 36 38 42 49 51 52 56 56 57 58 58
45 40 40 42 44 41 40 41 41 42 48 48 46 44 41 38 40 40 44 46 49 51 49 47 37 41 43 44 44 42 42 43 41 41 32 40 43 48 52 53 54 54 55 55 55
45 44 43 41 39 38 39 40 39 42 41 43 42 42 42 38 40 37 43 43 41 47 45 45 34 40 37 43 43 39 43 44 44 44 43 44 42 53 55 56 53 53 53 53 54
45 45 44 40 38 39 41 40 40 41 45 45 43 41 40 44 48 49 48 47 46 42 41 41 38 34 33 42 40 36 45 47 47 48 47 40 49 54 51 50 51 52 53 52 53
MSLP
1020.12 1019.73 1019.36 1019.04 1018.72 1018.42 1018.11 1017.76 1017.38 1017.01 1016.69 1016.38 1016.08 1015.79 1015.52 1015.20 1014.69 1014.24 1013.15 1011.82 1011.87 1011.61 1011.47 1011.16 1010.89 1010.80 1010.70 1010.30 1010.42 1010.12 1009.45 1008.45 1008.38 1008.29 1007.68 1007.67 1007.62 1007.48 1007.20 1007.09 1006.86 1006.56 1006.58 1006.59 1006.28
1020.06 1019.67 1019.25 1018.86 1018.49 1018.20 1017.88 1017.51 1017.15 1016.78 1016.45 1016.14 1015.88 1015.61 1015.33 1014.95 1014.23 1013.01 1011.42 1011.44 1011.52 1011.44 1011.27 1011.03 1010.96 1010.68 1010.48 1010.31 1010.21 1010.00 1008.94 1008.40 1008.34 1007.78 1007.19 1007.30 1007.49 1007.57 1007.44 1007.09 1006.71 1006.46 1006.51 1006.44 1006.19
1019.98 1019.54 1019.10 1018.69 1018.27 1017.86 1017.50 1017.19 1016.87 1016.53 1016.22 1015.97 1015.68 1015.45 1015.19 1014.85 1013.82 1011.31 1010.92 1011.18 1011.31 1011.37 1011.38 1011.25 1011.08 1010.66 1010.33 1010.46 1010.16 1009.98 1009.36 1008.92 1008.27 1008.00 1007.78 1007.17 1007.50 1007.51 1007.53 1006.89 1006.67 1006.47 1006.19 1005.85 1005.81
1019.89 1019.37 1018.89 1018.46 1018.03 1017.59 1017.18 1016.82 1016.55 1016.34 1016.09 1015.87 1015.59 1015.31 1015.00 1014.70 1012.89 1010.95 1010.85 1011.02 1011.18 1011.28 1011.18 1011.06 1010.87 1010.52 1010.29 1010.31 1010.44 1009.97 1009.97 1009.80 1008.72 1008.33 1008.09 1007.73 1007.95 1007.58 1007.62 1007.16 1007.05 1006.59 1006.54 1006.07 1005.66
1019.75 1019.27 1018.75 1018.27 1017.79 1017.35 1016.91 1016.52 1016.24 1016.07 1015.94 1015.83 1015.56 1015.34 1014.89 1013.89 1011.73 1010.86 1010.91 1011.06 1011.27 1011.31 1011.07 1010.86 1010.66 1010.60 1010.27 1010.48 1010.61 1010.09 1010.08 1009.96 1009.61 1008.72 1008.41 1008.30 1007.64 1007.34 1007.34 1007.39 1006.90 1006.51 1006.20 1005.80 1005.48
1019.44 1018.97 1018.55 1018.04 1017.56 1017.10 1016.65 1016.24 1015.97 1015.79 1015.73 1015.63 1015.44 1015.26 1014.76 1012.88 1010.92 1010.99 1011.01 1011.26 1011.18 1011.21 1011.09 1010.95 1010.63 1010.68 1010.60 1010.58 1010.69 1010.58 1010.39 1010.10 1009.77 1009.02 1008.55 1008.30 1007.51 1008.00 1007.05 1006.85 1006.54 1006.39 1005.81 1005.40 1005.13
1019.16 1018.69 1018.26 1017.82 1017.26 1016.75 1016.28 1015.89 1015.57 1015.42 1015.34 1015.31 1015.28 1015.07 1014.26 1011.84 1010.83 1011.06 1011.19 1010.95 1010.97 1010.94 1010.74 1010.84 1010.69 1010.61 1010.73 1010.76 1011.09 1010.91 1010.49 1010.05 1009.69 1009.25 1008.66 1008.49 1007.66 1007.46 1007.51 1007.26 1006.55 1006.58 1005.83 1005.44 1005.05
1018.90 1018.46 1017.94 1017.32 1016.85 1016.34 1015.80 1015.38 1015.07 1014.84 1014.92 1015.05 1015.06 1014.83 1012.81 1010.95 1010.86 1010.75 1010.83 1010.66 1010.76 1010.87 1010.86 1010.70 1010.68 1010.70 1010.76 1011.13 1011.32 1010.98 1010.81 1009.99 1009.55 1009.19 1008.58 1008.80 1007.60 1007.84 1008.04 1007.64 1007.04 1006.60 1006.36 1005.58 1005.16
1018.63 1018.09 1017.56 1016.97 1016.43 1015.89 1015.38 1014.91 1014.36 1014.01 1014.29 1014.85 1014.93 1014.29 1011.71 1010.60 1010.53 1010.14 1010.26 1010.29 1010.29 1010.57 1010.69 1010.72 1010.84 1011.06 1011.27 1011.04 1011.07 1011.04 1010.43 1010.37 1009.73 1009.56 1009.00 1009.25 1008.56 1008.11 1008.47 1008.16 1007.45 1006.88 1006.68 1005.79 1005.28
1018.33 1017.76 1017.18 1016.62 1016.11 1015.62 1015.03 1014.43 1014.30 1014.07 1014.49 1014.57 1014.32 1013.99 1011.48 1010.80 1010.33 1010.04 1009.99 1010.21 1010.20 1010.40 1010.53 1010.76 1010.93 1011.01 1011.23 1010.93 1010.51 1010.79 1010.71 1010.60 1010.15 1009.83 1009.28 1008.96 1008.76 1008.55 1008.20 1008.14 1007.69 1006.96 1006.55 1006.32 1005.60
1017.95 1017.30 1016.76 1016.21 1015.74 1015.45 1014.97 1014.44 1014.49 1014.20 1013.95 1013.13 1012.82 1012.26 1011.35 1010.80 1010.41 1009.99 1009.76 1009.98 1010.15 1010.30 1010.40 1010.91 1010.76 1010.54 1010.73 1010.98 1011.06 1011.05 1010.88 1010.64 1010.49 1010.15 1009.75 1008.80 1008.41 1008.02 1007.66 1007.24 1006.81 1006.62 1006.41 1006.33 1005.92
1017.69 1017.00 1016.31 1015.76 1015.31 1015.13 1015.09 1014.10 1013.94 1013.98 1013.18 1012.23 1012.01 1011.79 1011.34 1011.04 1010.50 1009.83 1009.83 1009.92 1010.05 1010.27 1010.81 1010.99 1010.50 1010.53 1010.90 1011.02 1011.11 1011.09 1010.94 1010.81 1010.77 1010.59 1010.27 1008.87 1007.86 1007.48 1007.03 1006.44 1005.93 1005.72 1005.82 1005.80 1005.69
1017.28 1016.58 1015.84 1015.28 1014.92 1014.67 1014.44 1013.93 1013.75 1013.66 1013.04 1011.69 1011.16 1010.80 1010.65 1010.80 1010.31 1009.79 1009.76 1009.77 1009.92 1010.24 1010.59 1010.52 1010.46 1010.63 1010.76 1010.81 1010.82 1010.80 1010.78 1010.79 1010.88 1010.73 1010.15 1009.40 1007.31 1006.79 1006.10 1006.10 1005.86 1005.57 1005.49 1005.46 1005.54
1016.82 1016.11 1015.43 1014.94 1014.92 1014.69 1014.06 1013.80 1013.64 1013.48 1012.42 1011.39 1010.59 1010.10 1010.34 1010.31 1009.96 1009.45 1009.46 1009.58 1009.98 1010.17 1010.56 1010.58 1010.62 1010.52 1010.55 1010.51 1010.61 1010.34 1010.54 1010.70 1010.72 1010.56 1009.90 1009.98 1007.71 1006.79 1006.26 1005.79 1005.55 1005.31 1005.19 1005.08 1005.07
1016.44 1015.78 1015.29 1015.05 1014.80 1014.43 1014.12 1013.73 1013.41 1013.29 1012.07 1010.86 1009.82 1009.24 1009.67 1009.96 1009.82 1009.46 1009.48 1009.58 1009.65 1010.12 1010.69 1010.30 1010.28 1010.28 1010.25 1010.13 1010.41 1010.38 1010.71 1010.76 1010.76 1010.53 1010.43 1009.34 1008.73 1006.24 1006.12 1005.47 1005.15 1005.07 1004.90 1004.84 1004.81
1016.11 1015.47 1015.28 1015.26 1015.04 1014.11 1013.97 1013.59 1013.29 1012.94 1011.49 1010.56 1009.86 1009.57 1009.68 1009.73 1009.59 1009.51 1009.62 1009.78 1010.02 1010.25 1010.45 1010.23 1010.39 1010.29 1010.10 1010.25 1010.51 1010.90 1010.94 1010.93 1011.19 1010.90 1009.93 1009.19 1008.62 1004.79 1004.92 1004.73 1004.88 1004.59 1004.53 1004.53 1004.56
1015.67 1015.21 1015.11 1015.05 1014.66 1014.16 1013.80 1013.37 1013.07 1012.26 1011.74 1011.06 1010.40 1010.25 1010.25 1010.09 1009.89 1009.96 1010.07 1010.21 1010.33 1010.44 1010.39 1010.32 1010.12 1010.16 1010.24 1010.28 1010.77 1010.94 1011.11 1010.42 1010.23 1010.14 1009.38 1009.41 1008.32 1004.99 1004.92 1004.70 1004.47 1004.26 1004.10 1004.18 1004.66
1015.29 1014.98 1015.03 1014.70 1014.43 1014.27 1013.63 1013.35 1012.68 1012.23 1011.81 1011.42 1010.95 1010.70 1010.62 1010.63 1010.66 1010.66 1010.58 1010.55 1010.70 1010.73 1010.63 1010.35 1010.16 1010.08 1010.15 1010.08 1010.23 1010.75 1011.20 1011.14 1010.43 1009.97 1009.21 1009.14 1006.58 1004.30 1004.81 1004.78 1004.46 1004.44 1004.18 1004.33 1004.40
1014.92 1014.84 1014.73 1014.52 1014.43 1014.30 1013.78 1013.22 1012.59 1012.43 1012.20 1011.79 1011.28 1011.03 1011.05 1011.23 1011.35 1011.20 1011.03 1010.86 1010.67 1010.81 1010.81 1010.70 1010.54 1010.37 1010.34 1010.41 1010.69 1011.10 1011.22 1011.61 1011.26 1010.94 1010.09 1007.58 1005.79 1004.82 1004.16 1004.00 1003.83 1003.76 1003.99 1003.97 1004.23
1015.49 1014.92 1014.41 1014.33 1014.30 1014.26 1013.95 1013.43 1013.03 1012.60 1012.34 1012.13 1011.73 1011.47 1011.35 1011.53 1011.77 1011.73 1011.41 1011.14 1011.01 1011.12 1011.36 1011.36 1011.15 1010.74 1010.32 1010.55 1010.46 1010.60 1011.04 1011.76 1012.01 1011.04 1009.17 1006.63 1005.39 1003.92 1003.83 1003.57 1003.53 1003.45 1003.47 1003.78 1004.15
1015.56 1014.98 1014.31 1014.13 1014.14 1014.24 1014.35 1014.04 1013.37 1012.77 1012.56 1012.33 1011.89 1011.73 1011.70 1011.79 1011.98 1011.98 1011.65 1011.49 1011.36 1011.54 1011.88 1011.95 1012.03 1011.18 1011.12 1010.29 1009.99 1010.87 1011.05 1011.72 1012.15 1011.80 1010.18 1007.58 1004.32 1004.04 1003.90 1003.91 1003.85 1003.73 1003.70 1003.88 1003.86
1016.03 1015.19 1014.50 1013.96 1014.41 1015.42 1014.99 1014.77 1014.07 1013.05 1012.73 1012.54 1012.37 1012.11 1012.09 1012.16 1012.17 1012.14 1011.82 1011.67 1011.78 1011.82 1011.98 1012.29 1012.22 1011.35 1010.63 1010.08 1010.29 1010.48 1010.89 1011.34 1011.54 1011.24 1010.45 1009.00 1004.22 1004.04 1004.01 1004.11 1004.44 1004.25 1004.15 1003.99 1003.87
1017.20 1016.38 1014.90 1014.37 1015.14 1015.67 1015.51 1015.02 1014.43 1013.51 1013.10 1012.92 1012.70 1012.64 1012.67 1012.64 1012.70 1012.24 1012.09 1012.07 1012.16 1012.25 1012.27 1012.53 1012.37 1011.60 1010.25 1010.63 1010.58 1010.49 1010.83 1011.13 1011.26 1011.63 1010.30 1009.20 1004.59 1003.92 1003.86 1004.08 1004.29 1003.95 1003.70 1003.61 1003.43
1018.03 1017.16 1016.42 1016.30 1017.01 1016.78 1016.59 1015.60 1014.80 1014.02 1013.60 1013.60 1013.31 1013.25 1013.22 1013.11 1013.10 1012.64 1012.55 1012.51 1012.62 1012.65 1012.77 1013.02 1012.44 1012.05 1010.94 1010.06 1010.66 1010.74 1010.51 1010.70 1011.02 1010.63 1009.05 1007.42 1004.19 1004.09 1004.11 1003.91 1003.55 1003.67 1003.78 1003.39 1003.09
1019.18 1019.46 1019.41 1018.14 1017.61 1017.76 1017.62 1016.66 1015.61 1014.98 1014.56 1014.32 1013.90 1014.23 1014.27 1013.83 1013.52 1013.22 1013.08 1012.88 1012.63 1012.56 1012.68 1012.67 1012.17 1011.98 1011.36 1010.83 1010.58 1010.24 1009.75 1009.40 1009.36 1008.77 1008.44 1005.47 1004.85 1003.47 1003.76 1003.51 1003.35 1003.45 1003.46 1003.30 1003.00
1020.09 1020.02 1019.91 1019.18 1018.70 1018.22 1017.60 1016.82 1016.40 1016.00 1015.90 1014.99 1014.83 1014.92 1014.86 1014.50 1014.06 1013.42 1013.15 1013.06 1012.71 1012.50 1012.55 1012.60 1012.29 1011.86 1011.15 1010.68 1010.09 1009.27 1008.50 1007.81 1007.47 1007.06 1006.41 1005.27 1003.86 1003.96 1003.55 1003.50 1003.42 1003.39 1003.07 1003.11 1002.58
1020.88 1020.85 1020.34 1019.37 1018.85 1018.37 1017.59 1017.20 1016.95 1016.96 1016.03 1015.70 1015.54 1015.19 1014.56 1014.08 1013.76 1013.30 1013.31 1013.17 1012.96 1012.82 1012.69 1012.60 1012.48 1012.26 1010.50 1009.89 1009.43 1008.00 1006.24 1005.90 1005.68 1005.63 1005.21 1004.33 1003.48 1003.50 1003.40 1003.51 1003.42 1003.16 1002.87 1002.45 1002.01
Wind_Speed
17 17 16 15 16 16 15 15 15 15 15 15 15 15 16 16 17 2 6 4 4 8 2 4 2 2 3 4 2 2 7 11 14 12 10 3 0 1 1 8 6 3 13 10 10
18 17 17 16 16 16 16 16 16 16 15 15 15 15 16 17 7 7 5 6 9 1 1 3 3 5 4 4 5 7 8 11 5 14 12 14 9 6 7 8 11 14 9 9 13
18 18 18 18 17 17 17 16 16 15 15 15 15 14 15 13 4 1 8 9 6 3 2 1 1 1 5 3 5 4 10 4 5 9 6 13 12 5 8 14 9 14 18 18 15
19 19 19 19 19 18 17 17 16 15 14 13 14 14 15 3 2 2 8 9 7 3 1 2 2 3 4 6 0 5 1 4 7 4 5 8 7 8 11 15 10 15 18 18 13
19 19 19 20 20 19 18 17 16 15 13 11 10 10 5 2 6 2 7 9 6 2 1 1 2 2 3 2 2 4 2 3 6 6 6 8 15 14 16 14 14 15 14 12 11
19 20 19 20 21 20 19 17 15 14 12 9 7 6 2 4 1 6 7 6 3 3 2 3 2 1 3 1 3 2 3 7 7 8 7 10 18 6 7 10 14 17 19 14 13
20 20 21 22 22 21 19 16 15 14 12 8 4 2 2 9 0 3 3 4 4 4 2 3 3 2 3 2 1 2 4 6 10 5 7 7 17 13 12 10 13 10 10 8 8
20 20 21 21 22 21 19 19 17 15 12 8 4 2 6 4 3 8 4 4 5 4 3 3 4 3 2 3 1 1 1 3 3 0 4 6 7 4 11 10 7 11 10 8 10
21 20 22 22 21 20 20 20 13 4 7 8 5 3 4 4 2 2 4 2 2 3 3 3 2 3 2 1 3 2 1 1 2 4 6 2 5 8 10 7 12 11 9 10 9
23 21 23 22 20 20 22 12 2 9 7 5 2 3 3 2 4 4 2 4 2 3 4 2 3 2 3 3 3 2 2 1 4 3 8 8 11 13 13 9 9 10 9 8 9
25 23 21 21 19 16 11 1 2 2 3 4 1 3 4 7 3 2 2 3 1 3 2 2 4 5 4 4 2 3 3 2 3 2 10 13 17 16 15 13 11 9 9 7 7
26 24 22 20 18 15 1 2 2 3 5 4 7 6 5 2 3 3 3 3 2 0 2 3 5 6 4 3 5 5 4 4 5 6 9 15 21 19 16 15 15 12 9 8 5
24 23 21 17 16 1 2 3 5 7 3 4 3 3 2 6 3 4 7 3 4 4 3 2 3 6 4 4 5 5 5 3 5 4 12 10 15 4 7 9 9 10 11 9 10
24 22 18 15 2 2 0 5 6 5 2 2 1 3 4 3 3 4 7 3 2 3 3 5 2 4 4 5 6 7 6 4 7 9 8 5 7 10 8 9 10 14 13 12 11
24 21 15 5 1 1 5 9 3 3 2 1 2 5 4 4 3 2 1 2 11 7 5 3 3 3 7 6 7 3 2 5 8 12 8 7 8 4 9 9 9 9 11 14 16
25 19 3 2 1 3 8 5 2 3 2 1 2 2 2 1 3 4 3 2 1 6 7 9 1 4 5 2 4 2 3 7 2 3 6 1 5 6 5 5 4 12 14 13 9
24 16 2 1 3 7 6 0 2 2 3 1 0 1 1 2 1 3 2 1 4 5 9 3 5 2 3 5 3 2 4 6 4 4 4 5 10 13 7 11 15 13 11 10 6
23 4 1 2 6 6 1 1 3 1 2 3 2 3 4 2 1 3 1 4 3 2 3 5 8 7 5 5 3 4 4 5 6 5 8 10 13 2 2 5 11 8 9 8 7
13 1 0 4 4 2 0 1 1 2 2 4 7 4 3 3 3 3 2 5 4 4 6 5 5 2 5 2 3 4 7 5 11 11 10 8 12 17 11 8 9 11 12 14 11
2 2 1 9 2 1 0 2 3 2 3 2 4 4 5 3 3 2 3 1 2 2 1 1 5 5 5 3 6 10 6 4 3 6 7 8 17 14 13 13 11 13 12 10 8
2 1 2 8 1 3 1 3 4 4 2 4 4 6 5 5 7 4 4 3 4 4 1 3 4 4 4 8 10 6 9 3 4 5 6 10 7 5 11 7 11 11 13 15 17
1 1 4 3 2 1 1 3 5 4 1 3 3 4 4 3 4 6 8 6 1 5 4 3 3 7 11 12 9 9 10 10 6 7 8 10 17 14 15 13 9 13 16 19 20
2 3 3 4 1 2 4 4 4 3 2 2 3 1 0 2 4 7 4 2 2 4 2 4 4 5 6 5 4 5 9 7 7 3 15 12 13 6 9 17 22 22 20 20 18
2 3 3 5 2 2 4 3 4 3 3 3 4 1 2 3 5 4 2 1 1 5 6 3 8 12 12 9 2 10 13 12 11 6 15 19 34 26 22 20 21 19 20 20 17
5 2 1 4 2 4 1 4 5 5 3 3 2 6 4 4 4 6 6 6 7 15 7 8 12 14 18 20 19 20 22 23 22 23 17 27 27 26 20 21 20 16 18 19 20
3 2 1 2 3 3 3 2 3 3 3 4 5 7 6 6 9 16 17 12 11 3 4 6 4 8 15 17 19 22 24 25 25 25 25 29 31 23 22 15 19 20 17 20 21
2 0 2 0 2 2 1 1 1 5 5 8 6 12 15 15 14 14 13 16 14 9 5 4 3 3 13 10 9 15 21 18 11 11 14 19 20 17 18 19 19 23 21 23 23
Wind_Direction
347 344 341 339 336 334 331 326 323 321 321 320 322 322 324 324 318 249 234 213 208 234 269 307 110 119 145 157 221 175 220 231 226 218 229 187 237 207 13 292 300 301 309 336 346
345 341 339 337 334 332 327 323 320 317 319 320 321 323 325 329 312 262 243 191 216 255 62 60 127 137 143 181 163 224 226 218 227 234 235 231 255 290 291 289 286 293 295 322 334
344 342 339 335 331 327 324 321 317 316 317 319 321 324 325 326 278 325 162 179 187 154 82 70 117 144 150 192 163 174 252 205 165 254 268 266 270 230 286 276 286 304 313 320 320
341 337 335 334 330 327 324 321 316 311 311 314 318 324 322 294 166 71 162 157 141 130 96 91 95 127 135 183 134 195 230 290 248 286 307 273 307 242 231 267 292 290 291 292 295
340 336 334 332 329 326 323 320 315 309 306 307 311 325 324 252 253 325 163 148 128 121 40 84 70 126 130 144 204 205 175 292 295 295 289 289 269 284 283 275 282 291 291 283 289
337 337 334 332 329 326 322 318 313 305 299 295 303 318 276 255 112 17 148 148 154 181 167 195 153 152 113 135 261 169 235 276 279 262 252 260 266 273 252 325 307 297 288 284 294
338 338 334 330 327 324 321 316 309 299 287 283 284 264 242 248 147 350 206 206 196 194 207 211 181 204 146 155 269 298 277 274 243 252 245 263 262 258 288 245 258 299 302 319 324
337 330 331 328 325 323 319 315 304 288 266 249 209 176 256 239 287 286 180 221 208 210 251 287 186 103 280 116 92 193 170 242 101 241 56 218 245 260 21 344 330 320 304 318 331
333 330 329 327 326 323 321 316 304 286 182 183 162 226 263 315 239 323 186 239 158 161 224 99 146 82 138 214 169 39 132 352 311 63 24 358 297 289 336 324 310 305 298 306 311
332 330 329 326 325 326 324 317 130 102 117 167 226 247 247 350 305 323 202 208 248 144 139 151 77 162 143 219 188 134 144 200 312 347 339 304 278 286 295 285 274 285 286 283 293
331 332 328 325 324 327 328 215 220 149 191 245 311 289 301 326 262 211 114 137 122 69 176 43 211 195 168 204 176 175 186 249 282 266 320 301 293 287 283 282 273 261 269 266 273
332 330 328 324 321 325 208 88 86 337 312 247 254 257 272 289 303 282 210 197 183 221 150 188 242 216 167 195 188 195 204 228 278 277 308 301 292 285 268 260 255 249 239 249 263
333 330 328 324 317 312 328 75 333 169 262 292 204 196 200 178 228 262 187 168 220 233 209 249 102 143 199 182 214 219 240 221 280 286 268 298 284 246 277 242 239 236 246 259 247
337 333 332 323 239 342 40 337 323 216 306 45 149 154 145 170 259 215 203 184 184 272 182 265 114 196 194 258 227 270 214 246 288 314 312 346 288 238 262 246 252 263 263 255 249
338 337 334 334 70 153 342 329 318 216 180 329 111 132 148 211 337 87 155 173 231 196 193 216 211 267 280 272 192 280 215 298 298 293 295 261 256 160 182 262 255 261 267 274 282
337 340 350 103 231 296 324 314 213 233 182 89 79 348 232 170 149 328 44 53 57 199 229 264 236 248 250 141 174 99 275 281 231 251 254 290 257 283 234 182 215 300 284 281 278
338 339 192 186 352 329 314 174 221 234 357 104 244 348 252 305 360 42 25 49 237 222 227 213 205 194 199 174 152 152 293 297 251 209 288 175 268 257 245 267 293 288 287 294 267
336 341 163 256 308 319 324 177 225 115 312 349 295 300 229 355 212 340 255 244 209 195 205 229 231 187 168 228 238 221 246 269 287 263 295 238 256 223 17 278 280 275 282 289 283
330 29 126 352 311 322 278 202 225 186 311 304 309 263 215 208 306 308 243 263 238 189 233 204 243 292 212 169 213 160 227 336 264 279 273 242 260 278 275 300 285 275 258 274 288
25 333 2 344 15 42 69 244 223 245 321 232 246 237 240 226 268 254 287 222 210 176 16 144 270 241 275 279 211 225 141 189 192 264 263 262 271 261 294 305 290 284 279 287 290
39 263 55 354 156 49 288 266 274 263 282 243 256 256 244 247 232 219 255 272 198 160 182 179 242 244 239 212 236 182 217 211 276 242 268 296 269 197 296 320 309 297 304 312 312
10 270 7 319 25 50 284 320 321 266 224 276 262 251 239 207 229 235 239 234 115 166 220 208 239 259 266 270 269 256 248 226 228 204 234 282 274 285 278 304 330 309 306 300 300
32 302 346 316 52 353 324 287 274 278 249 276 274 247 143 232 260 238 232 122 198 195 217 182 216 285 268 157 124 192 187 208 239 273 246 255 265 201 302 309 305 303 302 301 300
338 354 6 48 42 37 338 275 287 325 269 316 287 259 232 245 230 273 254 285 251 278 308 253 242 249 258 300 301 264 255 244 241 233 264 246 273 280 289 292 299 300 308 307 301
3 67 53 324 51 345 286 303 292 294 4 313 259 67 20 274 263 264 283 274 258 283 274 228 251 246 260 270 275 272 271 270 260 247 249 273 272 278 286 287 301 301 301 301 298
7 333 139 289 284 280 195 228 288 314 314 305 275 347 324 274 268 275 274 265 261 240 208 199 243 254 263 261 258 266 267 261 258 260 259 263 269 276 278 291 298 306 306 301 296
30 332 284 149 263 268 221 303 337 345 282 252 302 303 286 286 293 281 279 268 258 249 249 252 236 271 274 294 284 267 256 262 249 245 251 265 275 291 298 303 303 305 302 291 298